Location: Dzierzno
(50.6159°N, 19.2852°E)
Time: 21:06:28
(UTC+00:00)

Cosmos 1943 Rocket - Pass Details

Date: 18 November 2025
Orbit: 812 x 841 km, 71.0° (Epoch: 05 December)

Event Time Altitude Azimuth Distance (km) Brightness Sun altitude
Rises 15:40:19 0° 182° (S) 3,372 5.7 -7.6°
Reaches altitude 10° 15:42:53 10° 174° (S) 2,439 4.8 -8.0°
Maximum altitude 15:48:00 38° 108° (ESE) 1,251 2.7 -8.8°
Drops below altitude 10° 15:53:06 10° 42° (NE) 2,437 4.1 -9.5°
Enters shadow 15:53:44 - 40° (NE) 2,660 4.3 -9.6°
